Weather Roundup
Issued by NWS Springfield, MO

Home | Current Version | Previous Version | Text Only | Print | Product List | Glossary On
Versions: 1 2 3 4 5 6 7 8 9 10 11 12 13 14 15 16 17 18 19 20 21 22 23 24 25 26 27 28 29 30 31 32 33 34 35 36 37 38 39 40 41 42 43 44 45 46 47 48 49 50
000
NZUS99 KSGF 180107
HRRSGF

HOURLY WEATHER
NATIONAL WEATHER SERVICE SPRINGFIELD MO
800 PM CDT THU AUG 17 2017

......SGF CWA......

CITY           SKY/WX    TMP DP  RH WIND       PRES   REMARKS
SPRINGFIELD    CLEAR     76  64  66 NW6       29.97R
JOPLIN         CLEAR     78  64  61 W5        29.97S
WEST PLAINS    CLOUDY    77  68  73 W5        29.96S
ROLLA          CLEAR     73  64  73 W7        29.94R
OSAGE BEACH    CLEAR     75  65  70 W5        29.94R
BRANSON        PTCLDY    79  68  69 NW3       29.98S

......SURROUNDING SGF CWA......

CITY           SKY/WX    TMP DP  RH WIND       PRES   REMARKS
CHANUTE        CLEAR     79  64  60 CALM      29.97S
PARSONS        CLEAR     74  67  78 CALM      29.98R
COFFEYVILLE    CLEAR     79  68  69 CALM      29.96S
EMPORIA        CLEAR     77  66  68 S3        29.96F
GROVE OK       CLEAR     81  70  69 CALM      29.98R
ROGERS AR      CLEAR     78  69  73 W5        30.00R
SILOAM SPRINGS CLEAR     79  68  69 W5        29.99R
HARRISON AR    CLEAR     77  69  76 CALM      29.99R
NEAR YELLVILLE CLEAR     81  66  61 CALM      29.93R

......KANSAS AND MISSOURI......

CITY           SKY/WX    TMP DP  RH WIND       PRES   REMARKS
KANSAS CTY INT CLEAR     78  65  63 CALM      29.92F
DOWNTOWN KC    CLEAR     80  63  55 W7        29.91S
COLUMBIA       CLEAR     74  62  66 W7        29.91R
SEDALIA        CLEAR     76  64  66 W6        29.93S
ST JOSEPH      CLEAR     73  64  73 NW5       29.91F
ST LOUIS       PTCLDY    80  65  59 W9        29.88R
SPIRIT OF STL  PTCLDY    76  68  76 SW3       29.87R
KIRKSVILLE     CLEAR     77  61  57 W6        29.88S
WICHITA        PTCLDY    80  62  54 S7        29.97S
TOPEKA         CLEAR     79  61  53 W3        29.93S
OLATHE         CLEAR     78  61  55 SW5       29.94F

......TENNESSEE......

CITY           SKY/WX    TMP DP  RH WIND       PRES   REMARKS
MEMPHIS        MOCLDY    79  77  94 SW6       29.94R
NASHVILLE      MOCLDY    82  73  74 S9        29.93F

......ARKANSAS.......

CITY           SKY/WX    TMP DP  RH WIND       PRES   REMARKS
FAYETTEVILLE   CLEAR     77  71  82 SW5       30.00R
FT SMITH       CLEAR     84  73  69 NW5       29.95R HX  90
LITTLE ROCK    MOCLDY    82  72  71 W7        29.96R

......OKLAHOMA.......

CITY           SKY/WX    TMP DP  RH WIND       PRES   REMARKS
TULSA          PTCLDY    83  71  67 NW5       29.94R
PONCA CITY     CLEAR     78  67  68 CALM      29.97R
MCALESTER      CLEAR     83  76  79 S3        29.98R HX  91
OKLAHOMA CITY  PTCLDY    83  68  60 S6        29.98R

......IOWA............

CITY           SKY/WX    TMP DP  RH WIND       PRES   REMARKS
DES MOINES     PTCLDY    78  59  51 W10       29.86S
QUAD CITIES    PTCLDY    76  63  64 W13       29.81R

......ILLINOIS........

CITY           SKY/WX    TMP DP  RH WIND       PRES   REMARKS
QUINCY         CLEAR     77  60  55 W7        29.85R
CHICAGO        MOCLDY    78  64  61 W20       29.74R



USA.gov is the U.S. government's official web portal to all federal, state and local government web resources and services.